FW2977 Weather Reports


Display with metric or nautical units.
time (UTC)temp
F
wind
direction
speed
MPH
gust
MPH
rain 1hr
in
rain 24hr
in
rain mn
in
humidity
%
barometer
mb
20260509211524 51 148 4.0 12.0 0.00 0.42 0.42 95 954.1
20260509210023 50 155 4.0 9.0 0.00 0.42 0.42 95 954.5
20260509204521 50 100 4.0 8.0 0.00 0.42 0.42 95 954.6
20260509203019 50 130 3.0 7.0 0.00 0.42 0.42 95 954.6
20260509201518 50 106 3.0 9.0 0.01 0.42 0.42 95 954.6
20260509200017 49 167 5.0 9.0 0.02 0.42 0.42 95 954.9
20260509194517 50 131 4.0 8.0 0.05 0.42 0.42 95 954.9
20260509193025 50 128 4.0 9.0 0.07 0.42 0.42 95 955.0
20260509191516 50 134 3.0 8.0 0.07 0.41 0.41 95 955.0
20260509190114 50 143 4.0 9.0 0.06 0.40 0.40 95 955.3
20260509184527 49 130 5.0 9.0 0.03 0.37 0.37 94 955.2
20260509183008 49 113 6.0 9.0 0.01 0.35 0.35 94 955.2
20260509181505 49 121 3.0 9.0 0.00 0.34 0.34 94 955.2
20260509180002 49 106 6.0 13.0 0.00 0.34 0.34 94 955.2
20260509174621 49 122 8.0 12.0 0.01 0.34 0.34 94 955.2
20260509173059 49 146 5.0 14.0 0.01 0.34 0.34 94 955.1
20260509171559 49 86 8.0 14.0 0.02 0.34 0.34 94 954.9
20260509170059 48 109 9.0 14.0 0.02 0.34 0.34 94 955.1
20260509164553 49 66 9.0 14.0 0.01 0.33 0.33 95 955.1
20260509163056 49 87 9.0 14.0 0.02 0.33 0.33 95 955.1
20260509161551 49 100 9.0 14.0 0.01 0.32 0.32 95 955.2
20260509160049 49 89 8.0 16.0 0.01 0.32 0.32 95 955.4
20260509154546 48 125 10.0 16.0 0.02 0.32 0.32 95 955.5
20260509153055 48 94 11.0 16.0 0.02 0.31 0.31 95 955.6
20260509151542 48 95 11.0 18.0 0.03 0.31 0.31 95 955.7
20260509150041 48 105 12.0 18.0 0.04 0.31 0.31 95 956.1
20260509144537 47 80 12.0 16.0 0.04 0.30 0.30 95 956.1
20260509143033 47 114 11.0 16.0 0.03 0.28 0.28 96 956.1
20260509141532 47 85 10.0 15.0 0.03 0.28 0.28 95 956.1
20260509140028 46 75 8.0 15.0 0.03 0.27 0.27 96 956.1
20260509134528 46 77 9.0 15.0 0.04 0.26 0.26 96 956.2
20260509133026 46 76 11.0 15.0 0.06 0.26 0.26 96 956.0
20260509131523 46 47 7.0 12.0 0.06 0.25 0.25 96 956.3
20260509130032 46 80 9.0 14.0 0.07 0.24 0.24 95 956.4
20260509124522 46 81 9.0 14.0 0.06 0.22 0.22 95 956.5
20260509123021 46 77 9.0 13.0 0.05 0.20 0.20 95 956.5
20260509121525 46 88 7.0 13.0 0.04 0.18 0.18 95 956.6
20260509120019 46 86 8.0 10.0 0.04 0.17 0.17 95 956.5
20260509114517 45 103 7.0 14.0 0.06 0.16 0.16 95 956.7
20260509113016 45 100 8.0 17.0 0.07 0.15 0.15 95 956.6
20260509111513 45 76 11.0 17.0 0.09 0.14 0.14 95 956.6
20260509110111 45 84 9.0 14.0 0.09 0.13 0.13 95 956.6
20260509104511 45 108 8.0 12.0 0.06 0.10 0.10 94 956.4
20260509103008 45 82 8.0 12.0 0.03 0.07 0.07 94 956.6
20260509101510 45 107 6.0 10.0 0.01 0.05 0.05 94 956.4
20260509100006 45 94 7.0 10.0 0.00 0.04 0.04 94 956.4
20260509094503 45 86 7.0 11.0 0.01 0.04 0.04 94 956.2
20260509093002 45 86 5.0 9.0 0.01 0.04 0.04 94 956.3
20260509091607 45 84 5.0 10.0 0.01 0.04 0.04 94 956.2
20260509090105 45 86 5.0 10.0 0.01 0.04 0.04 94 956.5
20260509084602 45 97 7.0 10.0 0.01 0.03 0.03 94 956.5
20260509083100 45 93 6.0 10.0 0.01 0.03 0.03 93 956.7
20260509081554 45 86 5.0 9.0 0.01 0.03 0.03 93 956.9
20260509080054 45 101 4.0 9.0 0.01 0.03 0.03 93 957.2
20260509074554 45 97 5.0 10.0 0.00 0.02 0.02 92 957.0
20260509073051 45 81 5.0 9.0 0.01 0.02 0.02 91 956.9
20260509071548 45 112 4.0 7.0 0.02 0.02 0.02 91 956.9
20260509070046 46 155 2.0 5.0 0.02 0.02 0.02 91 956.7
20260509064544 45 138 2.0 4.0 0.02 0.02 0.02 90 957.0
20260509063041 45 115 2.0 6.0 0.01 0.01 0.01 89 957.2
20260509061543 45 102 3.0 6.0 0.00 0.00 0.00 87 957.4
20260509060048 45 98 3.0 6.0 0.00 0.00 0.00 86 957.5
20260509054539 45 106 3.0 7.0 0.00 0.00 0.00 84 957.6
20260509053101 45 106 4.0 8.0 0.00 0.00 0.00 83 957.6
20260509051542 46 120 3.0 9.0 0.00 0.00 0.00 83 957.6
20260509050032 46 81 3.0 9.0 0.00 0.00 0.00 82 957.4
20260509044532 46 103 4.0 8.0 0.00 0.00 0.00 81 957.7
20260509043030 46 90 4.0 8.0 0.00 0.00 0.00 79 957.9
20260509041526 46 71 4.0 9.0 0.00 0.00 0.00 79 957.8
20260509040028 46 98 3.0 7.0 0.00 0.00 0.00 78 957.9
20260509034521 46 96 2.0 6.0 0.00 0.00 0.00 78 957.8
20260509033021 45 74 3.0 6.0 0.00 0.00 0.00 78 957.9
20260509031522 45 73 3.0 5.0 0.00 0.00 0.00 75 957.9
20260509030032 45 71 2.0 4.0 0.00 0.00 0.00 72 958.0
20260509024519 45 71 0.0 2.0 0.00 0.00 0.00 72 958.1
20260509023022 46 71 3.0 6.0 0.00 0.00 0.00 70 957.8
20260509021530 46 82 7.0 10.0 0.00 0.00 0.00 67 958.0
20260509020018 45 57 5.0 7.0 0.00 0.00 0.00 67 958.1
20260509014517 45 65 4.0 6.0 0.00 0.00 0.00 67 958.0
20260509013017 46 52 3.0 6.0 0.00 0.00 0.00 66 958.0
20260509011517 46 64 3.0 5.0 0.00 0.00 0.00 66 957.9
20260509010017 47 44 3.0 4.0 0.00 0.00 0.00 64 957.6
20260509004523 48 22 2.0 5.0 0.00 0.00 0.00 63 957.3
20260509003015 49 24 3.0 4.0 0.00 0.00 0.00 59 957.2
20260509001515 49 12 2.0 3.0 0.00 0.00 0.00 58 957.1
20260509000014 49 338 0.0 3.0 0.00 0.00 0.00 57 956.9
20260508234515 50 337 0.0 1.0 0.00 0.00 0.00 56 956.8
20260508233013 50 337 0.0 3.0 0.00 0.00 0.00 58 956.6
20260508231512 50 337 1.0 3.0 0.00 0.00 0.00 57 956.6
20260508230012 51 337 0.0 1.0 0.00 0.00 0.00 57 956.6
20260508224511 51 336 0.0 2.0 0.00 0.00 0.00 60 956.7
20260508223022 51 296 0.0 4.0 0.00 0.00 0.00 53 956.6
20260508221509 52 249 2.0 4.0 0.00 0.00 0.00 51 956.6
20260508220010 52 269 2.0 4.0 0.00 0.00 0.00 50 956.6
20260508214509 53 245 1.0 4.0 0.00 0.00 0.00 51 956.5
20260508213019 54 232 2.0 5.0 0.00 0.00 0.00 50 956.8